COSMOS 2251 DEB, 34641

Orbit data source: Space-Track

COSMOS 2251 DEB, 34641 is space debris in LEO originally from a launch on Wed, 16 Jun 1993 UTC launched from the Plesetsk Missile And Space Complex (PKMTR). The debris from Iridium 33, an American commercial communications satellite, has been tracked extensively since its accidental collision with the defunct Russian satellite Cosmos 2251 in 2009. This event, occurring at high speed in low Earth orbit (LEO), generated thousands of pieces of space debris, significantly increasing the risk of further collisions. The Iridium 33 debris cloud has impacted space traffic management and orbital debris mitigation strategies, making it a subject of ongoing study in space situational awareness.

Loading next visibility...
Identifier
34641, 1993-036XN
Orbit
LEO
Country
Flag of CISCIS
Related business
Manufacturer
Unknown
Mission
Spacecraft
Bus & Motor
Unknown
Mass
Unknown
Launch date (UTC)
1993-06-16 (33 years ago)
Launch vehicle
Unknown
Launch site
Plesetsk Missile And Space Complex (PKMTR)
Object type
Payload
Rocket body
Debris
Shape & HBR
Unknown shape, 0.1 m
Radar Cross Section
Medium (>0.1 m² and <1 m²)

Expand to show TLE details & history
Last TLE update: 7 hours ago

TLE from 7 hours ago
0 COSMOS 2251 DEB
1 34641U 93036XN  26236.51507630  .00002101  00000-0  50976-3 0  9999
2 34641  73.8385 315.1872 0015199 189.3082 184.0125 14.53530848919569
Epoch: 2026-08-24T12:21Z
TLE epoch observation values (Epoch: 2026-08-24T12:21:42.592Z)
Latitude
12.74115°
Longitude
160.70105°
Altitude
726.759 km
Speed
7.487 km/s
True Right ascension
21h 15m 41s
True Declination
12° 40' 01"
Sunlit
Object was in full shadow at epoch
Visualization orbit readout
Latitude
Unknown
Longitude
Unknown
Altitude
Unknown
Speed
Unknown
Apparent Right ascension
Unknown
Apparent Declination
Unknown
Sunlit
N/A
Visualization observer readout
Local Sidereal Time
10:21:16
Azimuth
Unknown
Elevation
Unknown
Doppler factor
Unknown
Orbital elements
Apogee altitude
722.537 km
Perigee altitude
700.986 km
Semi-major axis
7,089.898 km
Eccentricity
0.00152
Inclination
73.8385°
RAAN
315.1872°
Arg. of periapsis
189.3082°
True anomaly
184.00034°
Mean anomaly
184.0125°
Eccentric anomaly
184.00642°
Mean motion
3.63566 °/min
Orbital period
99.02 mins
BSTAR
0.00050976
Loading maneuver chart data...
Computing Atmospheric mass density...

Documentation

Showing up to 5 results
|